Enid, OK

10:42 PM CDT on May 22, 2017 (GMT -0500)
Enid Woodring Municipal

Weather History for KWDG - December, 2012

Change the Weather History Date:

Saturday, December 1, 2012

  Actual Average Record
Temperature  
Mean Temperature 58 °F -  
Max Temperature 75 °F 51 °F 75 °F (2012)
Min Temperature 41 °F 34 °F 8 °F (2006)
Degree Days  
Heating Degree Days 6    
Growing Degree Days 8 (Base 50)    
Moisture  
Dew Point 47 °F    
Average Humidity 80    
Maximum Humidity 100    
Minimum Humidity 29    
Precipitation  
Precipitation 0.00 in - - ()
Sea Level Pressure  
Sea Level Pressure 29.87 in    
Wind  
Wind Speed 11 mph (SSW)    
Max Wind Speed 23 mph    
Max Gust Speed 29 mph    
Visibility 7 miles    
Events      
Averages and records for this station are not official NWS values.
T = Trace of Precipitation, MM = Missing Value Source: NWS Daily Summary

Daily Weather History Graph

Daily Weather History Graph

Search for Another Location

Airport or City:

Trip Planner

Search our weather history database for the weather conditions in past years. The results will help you decide how hot, cold, wet, or windy it might be!

Date:

Astronomy

Dec. 01, 2012 Rise Set
Actual Time 7:24 AM CST 5:16 PM CST
Civil Twilight 6:56 AM CST 5:44 PM CST
Nautical Twilight 6:24 AM CST 6:16 PM CST
Astronomical Twilight 5:53 AM CST 6:47 PM CST
Moon 8:05 PM CST (12/1) 9:39 AM CST (12/1)
Length of Visible Light 10h 48m
Length of Day
9h 51m
Waning Gibbous, 91% of the Moon is Illuminated
Dec 1
Waning Gibbous
Dec 6
Last Quarter
Dec 13
New
Dec 19
First Quarter
Dec 28
Full

Hourly Weather History & Observations

Time (CST) Temp. Windchill Dew Point Humidity Pressure Visibility Wind Dir Wind Speed Gust Speed Precip Events Conditions
12:15 AM 50.0 °F - 50.0 °F 100% 29.91 in 2.0 mi SSE 8.1 mph - N/A   Clear
12:35 AM 50.0 °F - 50.0 °F 100% 29.90 in 1.5 mi SSE 9.2 mph - N/A   Mist
12:55 AM 51.8 °F - 51.8 °F 100% 29.89 in 2.0 mi SSE 9.2 mph - N/A   Clear
1:15 AM 53.6 °F - 53.6 °F 100% 29.87 in 3.0 mi SSE 10.4 mph - N/A   Clear
1:35 AM 55.4 °F - 55.4 °F 100% 29.87 in 4.0 mi SSE 11.5 mph - N/A   Clear
1:55 AM 55.4 °F - 55.4 °F 100% 29.86 in 5.0 mi South 12.7 mph - N/A   Clear
2:15 AM 57.2 °F - 55.4 °F 94% 29.86 in 5.0 mi South 15.0 mph - N/A   Clear
2:35 AM 57.2 °F - 55.4 °F 94% 29.85 in 5.0 mi South 13.8 mph - N/A   Clear
2:55 AM 57.2 °F - 55.4 °F 94% 29.85 in 7.0 mi South 13.8 mph - N/A   Clear
3:15 AM 57.2 °F - 55.4 °F 94% 29.85 in 7.0 mi South 13.8 mph - N/A   Clear
4:15 AM 57.2 °F - 55.4 °F 94% 29.83 in 7.0 mi South 13.8 mph - N/A   Clear
4:35 AM 57.2 °F - 55.4 °F 94% 29.82 in 7.0 mi South 10.4 mph 17.3 mph N/A   Clear
4:55 AM 57.2 °F - 55.4 °F 94% 29.82 in 10.0 mi South 12.7 mph 18.4 mph N/A   Clear
6:17 AM 57.2 °F - 55.4 °F 94% 29.81 in 7.0 mi South 15.0 mph - N/A   Scattered Clouds
7:50 AM 57.2 °F - 55.4 °F 94% 29.80 in 7.0 mi South 16.1 mph 21.9 mph N/A   Mostly Cloudy
8:50 AM 59.0 °F - 55.4 °F 88% 29.80 in 7.0 mi South 19.6 mph 27.6 mph N/A   Mostly Cloudy
10:50 AM 64.4 °F - 53.6 °F 68% 29.81 in 7.0 mi SSW 20.7 mph 28.8 mph N/A   Mostly Cloudy
11:50 AM 68.0 °F - 50.0 °F 52% 29.80 in 7.0 mi SSW 23.0 mph 28.8 mph N/A   Mostly Cloudy
12:50 PM 69.8 °F - 51.8 °F 53% 29.80 in 7.0 mi SSW 20.7 mph 28.8 mph N/A   Mostly Cloudy
1:50 PM 75.2 °F - 44.6 °F 34% 29.79 in 10.0 mi SW 20.7 mph 28.8 mph N/A   Overcast
2:50 PM 73.4 °F - 42.8 °F 33% 29.80 in 10.0 mi SSW 15.0 mph 21.9 mph N/A   Mostly Cloudy
3:50 PM 75.2 °F - 41.0 °F 29% 29.81 in 10.0 mi WSW 11.5 mph - N/A   Mostly Cloudy
5:50 PM 60.8 °F - 37.4 °F 42% 29.85 in 10.0 mi NNW 10.4 mph - N/A   Scattered Clouds
6:50 PM 55.4 °F - 39.2 °F 54% 29.87 in 10.0 mi NNW 9.2 mph - N/A   Scattered Clouds
7:50 PM 50.0 °F - 39.2 °F 66% 29.90 in 10.0 mi North 9.2 mph - N/A   Scattered Clouds
8:15 PM 50.0 °F - 39.2 °F 66% 29.90 in 10.0 mi North 9.2 mph - N/A   Clear
8:35 PM 48.2 °F - 41.0 °F 76% 29.90 in 10.0 mi North 8.1 mph - N/A   Clear
8:50 PM 48.2 °F - 41.0 °F 76% 29.91 in 10.0 mi North 6.9 mph - N/A   Clear
8:55 PM 48.2 °F - 41.0 °F 76% 29.90 in 10.0 mi North 8.1 mph - N/A   Clear
9:15 PM 48.2 °F - 42.8 °F 82% 29.90 in 10.0 mi North 6.9 mph - N/A   Clear
9:35 PM 46.4 °F 43.5 °F 42.8 °F 87% 29.91 in 10.0 mi NE 5.8 mph - N/A   Clear
9:55 PM 44.6 °F 40.7 °F 41.0 °F 87% 29.92 in 10.0 mi North 6.9 mph - N/A   Clear
10:15 PM 44.6 °F 43.1 °F 41.0 °F 87% 29.92 in 10.0 mi NW 3.5 mph - N/A   Clear
10:35 PM 44.6 °F 43.1 °F 41.0 °F 87% 29.92 in 7.0 mi NW 3.5 mph - N/A   Clear
10:55 PM 42.8 °F - 41.0 °F 93% 29.93 in 7.0 mi Calm Calm - N/A   Clear
11:15 PM 44.6 °F - 42.8 °F 93% 29.93 in 7.0 mi Calm Calm - N/A   Clear
11:35 PM 42.8 °F - 41.0 °F 93% 29.94 in 7.0 mi Calm Calm - N/A   Clear
11:55 PM 41.0 °F 39.0 °F 37.4 °F 87% 29.93 in 7.0 mi WNW 3.5 mph - N/A   Clear